| time (UTC) | temp F | wind direction | speed knots | gust knots | rain 1hr in | rain 24hr in | rain mn in | humidity % | barometer mb |
| 20260505171016 | 80 | 0 | 0.9 | 13.0 | 0.00 | 0.00 | 0.00 | 45 | 1008.6 |
| 20260505170513 | 79 | 0 | 1.7 | 13.0 | 0.00 | 0.00 | 0.00 | 46 | 1008.7 |
| 20260505170032 | 79 | 0 | 1.7 | 14.8 | 0.00 | 0.00 | 0.00 | 46 | 1008.6 |
| 20260505165514 | 78 | 225 | 1.7 | 14.8 | 0.00 | 0.00 | 0.00 | 49 | 1008.8 |
| 20260505165013 | 78 | 0 | 0.0 | 18.2 | 0.00 | 0.00 | 0.00 | 48 | 1008.9 |
| 20260505164530 | 78 | 0 | 4.3 | 18.2 | 0.00 | 0.00 | 0.00 | 48 | 1009.2 |
| 20260505164013 | 78 | 0 | 0.0 | 14.8 | 0.00 | 0.00 | 0.00 | 47 | 1009.2 |
| 20260505163514 | 78 | 252 | 0.9 | 15.6 | 0.00 | 0.00 | 0.00 | 47 | 1009.4 |
| 20260505163038 | 78 | 207 | 3.5 | 15.6 | 0.00 | 0.00 | 0.00 | 47 | 1009.3 |
| 20260505162513 | 77 | 222 | 0.0 | 15.6 | 0.00 | 0.00 | 0.00 | 49 | 1009.6 |
| 20260505162015 | 76 | 0 | 2.6 | 15.6 | 0.00 | 0.00 | 0.00 | 47 | 1009.6 |
| 20260505161530 | 77 | 304 | 7.0 | 14.8 | 0.00 | 0.00 | 0.00 | 47 | 1009.6 |
| 20260505161014 | 77 | 337 | 5.2 | 14.8 | 0.00 | 0.00 | 0.00 | 51 | 1009.7 |
| 20260505160513 | 77 | 0 | 1.7 | 15.6 | 0.00 | 0.00 | 0.00 | 48 | 1009.7 |
| 20260505153042 | 75 | 298 | 2.6 | 14.8 | 0.00 | 0.00 | 0.00 | 51 | 1009.6 |
| 20260505152516 | 75 | 0 | 1.7 | 15.6 | 0.00 | 0.00 | 0.00 | 52 | 1009.7 |
| 20260505152013 | 75 | 300 | 3.5 | 15.6 | 0.00 | 0.00 | 0.00 | 51 | 1009.8 |
| 20260505151537 | 75 | 335 | 6.1 | 14.8 | 0.00 | 0.00 | 0.00 | 50 | 1009.8 |
| 20260505151012 | 75 | 0 | 2.6 | 11.3 | 0.00 | 0.00 | 0.00 | 50 | 1009.8 |
| 20260505150515 | 75 | 192 | 0.9 | 10.4 | 0.00 | 0.00 | 0.00 | 53 | 1009.8 |
| 20260505140511 | 71 | 0 | 0.0 | 8.7 | 0.00 | 0.00 | 0.00 | 59 | 1010.2 |
| 20260505125014 | 65 | 0 | 0.0 | 0.0 | 0.00 | 0.00 | 0.00 | 68 | 1010.4 |
| 20260505124536 | 65 | 0 | 0.0 | 0.0 | 0.00 | 0.00 | 0.00 | 68 | 1010.4 |
| 20260505124014 | 64 | 0 | 0.0 | 0.9 | 0.00 | 0.00 | 0.00 | 68 | 1010.4 |
| 20260505123517 | 64 | 0 | 0.0 | 3.5 | 0.00 | 0.00 | 0.00 | 69 | 1010.4 |
| 20260505123052 | 63 | 0 | 0.9 | 3.5 | 0.00 | 0.00 | 0.00 | 70 | 1010.4 |
| 20260505122515 | 63 | 0 | 0.0 | 0.0 | 0.00 | 0.00 | 0.00 | 72 | 1010.4 |
| 20260505122011 | 62 | 0 | 0.0 | 0.0 | 0.00 | 0.00 | 0.00 | 73 | 1010.5 |
| 20260505121534 | 62 | 0 | 0.0 | 0.0 | 0.00 | 0.00 | 0.00 | 75 | 1010.5 |
| 20260505121013 | 61 | 0 | 0.0 | 0.0 | 0.00 | 0.00 | 0.00 | 75 | 1010.5 |
| 20260505120513 | 60 | 0 | 0.0 | 0.0 | 0.00 | 0.00 | 0.00 | 78 | 1010.4 |
| 20260505120032 | 60 | 0 | 0.0 | 0.0 | 0.00 | 0.00 | 0.00 | 77 | 1010.3 |
| 20260505115513 | 59 | 0 | 0.0 | 0.0 | 0.00 | 0.00 | 0.00 | 77 | 1010.2 |
| 20260505115037 | 59 | 0 | 0.0 | 0.0 | 0.00 | 0.00 | 0.00 | 76 | 1010.2 |
| 20260505114545 | 59 | 0 | 0.0 | 0.0 | 0.00 | 0.00 | 0.00 | 77 | 1010.3 |
| 20260505114015 | 59 | 0 | 0.0 | 0.0 | 0.00 | 0.00 | 0.00 | 78 | 1010.3 |
| 20260505113513 | 59 | 0 | 0.0 | 0.0 | 0.00 | 0.00 | 0.00 | 78 | 1010.4 |
| 20260505113037 | 59 | 0 | 0.0 | 0.0 | 0.00 | 0.00 | 0.00 | 80 | 1010.2 |
| 20260505112516 | 58 | 0 | 0.0 | 0.0 | 0.00 | 0.00 | 0.00 | 81 | 1010.2 |
| 20260505112020 | 57 | 0 | 0.0 | 0.0 | 0.00 | 0.00 | 0.00 | 81 | 1009.7 |
| 20260505111550 | 56 | 0 | 0.0 | 0.0 | 0.00 | 0.00 | 0.00 | 81 | 1009.6 |
| 20260505111017 | 56 | 0 | 0.0 | 0.0 | 0.00 | 0.00 | 0.00 | 81 | 1009.7 |
| 20260505110513 | 56 | 0 | 0.0 | 0.0 | 0.00 | 0.00 | 0.00 | 81 | 1009.8 |
| 20260505102018 | 55 | 0 | 0.0 | 0.0 | 0.00 | 0.00 | 0.00 | 80 | 1009.8 |
| 20260505101535 | 55 | 0 | 0.0 | 0.0 | 0.00 | 0.00 | 0.00 | 80 | 1009.8 |
| 20260505101019 | 56 | 0 | 0.0 | 0.0 | 0.00 | 0.00 | 0.00 | 79 | 1009.8 |
| 20260505100514 | 56 | 0 | 0.0 | 0.0 | 0.00 | 0.00 | 0.00 | 79 | 1009.5 |
| 20260505100034 | 56 | 0 | 0.0 | 0.0 | 0.00 | 0.00 | 0.00 | 79 | 1009.4 |
| 20260505095514 | 56 | 0 | 0.0 | 0.0 | 0.00 | 0.00 | 0.00 | 79 | 1009.3 |
| 20260505095014 | 56 | 0 | 0.0 | 0.0 | 0.00 | 0.00 | 0.00 | 79 | 1009.3 |
| 20260505094530 | 56 | 0 | 0.0 | 0.0 | 0.00 | 0.00 | 0.00 | 78 | 1009.3 |
| 20260505094017 | 56 | 0 | 0.0 | 0.0 | 0.00 | 0.00 | 0.00 | 78 | 1009.3 |
| 20260505093514 | 56 | 0 | 0.0 | 0.0 | 0.00 | 0.00 | 0.00 | 78 | 1009.4 |
| 20260505093031 | 56 | 0 | 0.0 | 0.0 | 0.00 | 0.00 | 0.00 | 77 | 1009.3 |
| 20260505092516 | 57 | 0 | 0.0 | 0.0 | 0.00 | 0.00 | 0.00 | 76 | 1009.3 |
| 20260505092017 | 57 | 0 | 0.0 | 0.0 | 0.00 | 0.00 | 0.00 | 76 | 1009.3 |
| 20260505091534 | 57 | 0 | 0.0 | 0.0 | 0.00 | 0.00 | 0.00 | 75 | 1009.3 |
| 20260505091015 | 57 | 0 | 0.0 | 0.0 | 0.00 | 0.00 | 0.00 | 75 | 1009.3 |
| 20260505090514 | 58 | 0 | 0.0 | 0.0 | 0.00 | 0.00 | 0.00 | 75 | 1009.4 |
| 20260505090037 | 58 | 0 | 0.0 | 0.0 | 0.00 | 0.00 | 0.00 | 74 | 1009.4 |
| 20260505085512 | 58 | 0 | 0.0 | 0.0 | 0.00 | 0.00 | 0.00 | 73 | 1009.4 |
| 20260505085017 | 58 | 0 | 0.0 | 0.0 | 0.00 | 0.00 | 0.00 | 73 | 1009.4 |
| 20260505084531 | 58 | 0 | 0.0 | 2.6 | 0.00 | 0.00 | 0.00 | 73 | 1009.4 |
| 20260505084012 | 58 | 0 | 0.0 | 2.6 | 0.00 | 0.00 | 0.00 | 73 | 1009.2 |
| 20260505083515 | 58 | 0 | 0.0 | 2.6 | 0.00 | 0.00 | 0.00 | 73 | 1009.2 |
| 20260505083040 | 59 | 0 | 0.0 | 0.0 | 0.00 | 0.00 | 0.00 | 72 | 1009.2 |
| 20260505082514 | 59 | 0 | 0.0 | 0.9 | 0.00 | 0.00 | 0.00 | 72 | 1009.1 |
| 20260505082012 | 59 | 0 | 0.0 | 0.9 | 0.00 | 0.00 | 0.00 | 72 | 1009.2 |
| 20260505081537 | 59 | 0 | 0.0 | 0.0 | 0.00 | 0.00 | 0.00 | 73 | 1009.1 |
| 20260505081021 | 58 | 0 | 0.0 | 0.0 | 0.00 | 0.00 | 0.00 | 73 | 1009.0 |
| 20260505080514 | 58 | 0 | 0.0 | 2.6 | 0.00 | 0.00 | 0.00 | 73 | 1009.0 |
| 20260505080036 | 58 | 0 | 0.0 | 2.6 | 0.00 | 0.00 | 0.00 | 73 | 1009.1 |
| 20260505075514 | 58 | 0 | 0.0 | 0.0 | 0.00 | 0.00 | 0.00 | 74 | 1009.0 |
| 20260505075017 | 58 | 0 | 0.0 | 0.0 | 0.00 | 0.00 | 0.00 | 73 | 1008.9 |
| 20260505074533 | 58 | 0 | 0.0 | 0.0 | 0.00 | 0.00 | 0.00 | 73 | 1008.9 |
| 20260505074014 | 58 | 0 | 0.0 | 0.0 | 0.00 | 0.00 | 0.00 | 72 | 1009.0 |
| 20260505073515 | 58 | 0 | 0.0 | 0.0 | 0.00 | 0.00 | 0.00 | 72 | 1009.0 |
| 20260505073032 | 58 | 0 | 0.0 | 0.0 | 0.00 | 0.00 | 0.00 | 72 | 1009.0 |
| 20260505072514 | 58 | 0 | 0.0 | 0.0 | 0.00 | 0.00 | 0.00 | 71 | 1008.9 |
| 20260505072014 | 59 | 0 | 0.0 | 0.0 | 0.00 | 0.00 | 0.00 | 71 | 1008.9 |
| 20260505071537 | 59 | 0 | 0.0 | 0.0 | 0.00 | 0.00 | 0.00 | 71 | 1008.9 |
| 20260505071016 | 59 | 0 | 0.0 | 0.0 | 0.00 | 0.00 | 0.00 | 71 | 1008.9 |
| 20260505070515 | 59 | 0 | 0.0 | 0.0 | 0.00 | 0.00 | 0.00 | 70 | 1008.9 |
| 20260505070039 | 60 | 0 | 0.0 | 0.0 | 0.00 | 0.00 | 0.00 | 69 | 1008.8 |
| 20260505065513 | 60 | 0 | 0.0 | 0.0 | 0.00 | 0.00 | 0.00 | 69 | 1008.8 |
| 20260505065014 | 60 | 0 | 0.0 | 0.0 | 0.00 | 0.00 | 0.00 | 69 | 1008.8 |
| 20260505064550 | 60 | 0 | 0.0 | 0.0 | 0.00 | 0.00 | 0.00 | 69 | 1008.8 |
| 20260505064013 | 60 | 0 | 0.0 | 0.0 | 0.00 | 0.00 | 0.00 | 69 | 1008.8 |
| 20260505063515 | 60 | 0 | 0.0 | 0.0 | 0.00 | 0.00 | 0.00 | 68 | 1008.9 |
| 20260505063031 | 60 | 0 | 0.0 | 0.0 | 0.00 | 0.00 | 0.00 | 67 | 1008.9 |
| 20260505062513 | 60 | 0 | 0.0 | 0.0 | 0.00 | 0.00 | 0.00 | 67 | 1008.8 |
| 20260505062014 | 60 | 0 | 0.0 | 0.0 | 0.00 | 0.00 | 0.00 | 66 | 1008.8 |
| 20260505061538 | 60 | 0 | 0.0 | 0.0 | 0.00 | 0.00 | 0.00 | 66 | 1008.9 |
| 20260505061016 | 60 | 0 | 0.0 | 0.0 | 0.00 | 0.00 | 0.00 | 66 | 1009.0 |
| 20260505060515 | 60 | 0 | 0.0 | 0.0 | 0.00 | 0.00 | 0.00 | 66 | 1009.0 |
| 20260505060032 | 60 | 0 | 0.0 | 0.0 | 0.00 | 0.00 | 0.00 | 67 | 1009.1 |
| 20260505055513 | 60 | 0 | 0.0 | 0.0 | 0.00 | 0.00 | 0.00 | 68 | 1009.0 |
| 20260505055014 | 61 | 0 | 0.0 | 0.0 | 0.00 | 0.00 | 0.00 | 68 | 1009.0 |
| 20260505054530 | 61 | 0 | 0.0 | 0.0 | 0.00 | 0.00 | 0.00 | 65 | 1009.0 |
| 20260505054017 | 61 | 0 | 0.0 | 0.0 | 0.00 | 0.00 | 0.00 | 65 | 1009.1 |
| 20260505053517 | 61 | 0 | 0.0 | 0.0 | 0.00 | 0.00 | 0.00 | 65 | 1009.1 |
| 20260505053030 | 61 | 0 | 0.0 | 0.0 | 0.00 | 0.00 | 0.00 | 65 | 1009.2 |
| 20260505052513 | 61 | 0 | 0.0 | 0.0 | 0.00 | 0.00 | 0.00 | 64 | 1009.3 |
| 20260505052014 | 61 | 0 | 0.0 | 0.0 | 0.00 | 0.00 | 0.00 | 63 | 1009.2 |
| 20260505051532 | 62 | 0 | 0.0 | 0.0 | 0.00 | 0.00 | 0.00 | 63 | 1009.2 |
| 20260505051013 | 62 | 0 | 0.0 | 0.0 | 0.00 | 0.00 | 0.00 | 62 | 1009.1 |
| 20260505050516 | 62 | 0 | 0.0 | 0.0 | 0.00 | 0.00 | 0.00 | 62 | 1009.2 |
| 20260505041534 | 63 | 0 | 0.0 | 0.0 | 0.00 | 0.00 | 0.00 | 59 | 1009.0 |
| 20260505041012 | 63 | 0 | 0.0 | 2.6 | 0.00 | 0.00 | 0.00 | 58 | 1008.9 |
| 20260505040511 | 64 | 0 | 0.0 | 3.5 | 0.00 | 0.00 | 0.00 | 58 | 1008.8 |
| 20260505040031 | 64 | 0 | 0.0 | 3.5 | 0.00 | 0.00 | 0.00 | 58 | 1008.7 |
| 20260505035512 | 64 | 0 | 0.0 | 0.0 | 0.00 | 0.00 | 0.00 | 57 | 1008.7 |
| 20260505035017 | 64 | 0 | 0.0 | 0.0 | 0.00 | 0.00 | 0.00 | 57 | 1008.8 |
| 20260505034533 | 64 | 0 | 0.0 | 0.0 | 0.00 | 0.00 | 0.00 | 56 | 1008.8 |
| 20260505034017 | 64 | 0 | 0.0 | 0.0 | 0.00 | 0.00 | 0.00 | 56 | 1008.8 |
| 20260505033515 | 64 | 0 | 0.0 | 0.0 | 0.00 | 0.00 | 0.00 | 56 | 1008.8 |
| 20260505033035 | 64 | 0 | 0.0 | 0.0 | 0.00 | 0.00 | 0.00 | 56 | 1008.8 |
| 20260505032512 | 65 | 0 | 0.0 | 0.0 | 0.00 | 0.00 | 0.00 | 55 | 1008.8 |
| 20260505032016 | 65 | 0 | 0.0 | 0.0 | 0.00 | 0.00 | 0.00 | 55 | 1008.6 |
| 20260505031530 | 65 | 0 | 0.0 | 0.0 | 0.00 | 0.00 | 0.00 | 55 | 1008.6 |
| 20260505031011 | 65 | 0 | 0.0 | 0.0 | 0.00 | 0.00 | 0.00 | 56 | 1008.7 |
| 20260505030511 | 65 | 0 | 0.0 | 0.0 | 0.00 | 0.00 | 0.00 | 55 | 1008.8 |
| 20260505030030 | 65 | 0 | 0.0 | 0.9 | 0.00 | 0.00 | 0.00 | 55 | 1008.8 |
| 20260505025515 | 66 | 0 | 0.0 | 0.9 | 0.00 | 0.00 | 0.00 | 54 | 1008.8 |
| 20260505025012 | 66 | 0 | 0.0 | 4.3 | 0.00 | 0.00 | 0.00 | 53 | 1008.8 |
| 20260505024541 | 66 | 0 | 0.0 | 4.3 | 0.00 | 0.00 | 0.00 | 53 | 1008.7 |
| 20260505024012 | 66 | 0 | 0.0 | 1.7 | 0.00 | 0.00 | 0.00 | 52 | 1008.7 |
| 20260505023512 | 66 | 0 | 0.0 | 4.3 | 0.00 | 0.00 | 0.00 | 52 | 1008.6 |
| 20260505023030 | 67 | 0 | 0.0 | 4.3 | 0.00 | 0.00 | 0.00 | 52 | 1008.6 |
| 20260505022521 | 67 | 0 | 0.0 | 5.2 | 0.00 | 0.00 | 0.00 | 52 | 1008.6 |
| 20260505022013 | 67 | 0 | 0.0 | 5.2 | 0.00 | 0.00 | 0.00 | 52 | 1008.6 |
| 20260505021537 | 67 | 211 | 0.0 | 4.3 | 0.00 | 0.00 | 0.00 | 51 | 1008.6 |
| 20260505021015 | 67 | 0 | 0.0 | 4.3 | 0.00 | 0.00 | 0.00 | 51 | 1008.6 |
| 20260505020514 | 67 | 0 | 0.0 | 2.6 | 0.00 | 0.00 | 0.00 | 51 | 1008.6 |
| 20260505020032 | 67 | 0 | 0.0 | 3.5 | 0.00 | 0.00 | 0.00 | 50 | 1008.6 |
| 20260505015512 | 67 | 0 | 0.0 | 3.5 | 0.00 | 0.00 | 0.00 | 50 | 1008.6 |
| 20260505015019 | 68 | 0 | 0.0 | 4.3 | 0.00 | 0.00 | 0.00 | 51 | 1008.6 |
| 20260505014538 | 68 | 0 | 0.0 | 4.3 | 0.00 | 0.00 | 0.00 | 49 | 1008.6 |
| 20260505014014 | 68 | 0 | 0.0 | 7.8 | 0.00 | 0.00 | 0.00 | 49 | 1008.6 |
| 20260505013517 | 68 | 0 | 0.0 | 7.8 | 0.00 | 0.00 | 0.00 | 48 | 1008.6 |
| 20260505013032 | 68 | 188 | 0.0 | 5.2 | 0.00 | 0.00 | 0.00 | 48 | 1008.5 |
| 20260505012514 | 68 | 215 | 0.9 | 6.1 | 0.00 | 0.00 | 0.00 | 48 | 1008.3 |
| 20260505012015 | 68 | 0 | 0.0 | 6.1 | 0.00 | 0.00 | 0.00 | 48 | 1008.3 |
| 20260505011534 | 68 | 192 | 0.0 | 6.1 | 0.00 | 0.00 | 0.00 | 48 | 1008.3 |
| 20260505011015 | 68 | 211 | 0.9 | 6.1 | 0.00 | 0.00 | 0.00 | 48 | 1008.4 |
| 20260505010515 | 68 | 225 | 0.0 | 4.3 | 0.00 | 0.00 | 0.00 | 48 | 1008.2 |
| 20260505010031 | 68 | 0 | 0.0 | 6.1 | 0.00 | 0.00 | 0.00 | 48 | 1008.2 |
| 20260505005514 | 68 | 0 | 0.0 | 6.1 | 0.00 | 0.00 | 0.00 | 49 | 1008.2 |
| 20260505005016 | 68 | 219 | 0.0 | 6.1 | 0.00 | 0.00 | 0.00 | 48 | 1008.2 |
| 20260505004531 | 68 | 0 | 0.0 | 3.5 | 0.00 | 0.00 | 0.00 | 48 | 1008.1 |
| 20260505004014 | 68 | 0 | 0.0 | 7.0 | 0.00 | 0.00 | 0.00 | 48 | 1008.1 |
| 20260505003516 | 69 | 0 | 0.0 | 7.0 | 0.00 | 0.00 | 0.00 | 47 | 1008.0 |
| 20260505003032 | 69 | 225 | 1.7 | 9.6 | 0.00 | 0.00 | 0.00 | 47 | 1008.1 |
| 20260505002518 | 69 | 0 | 0.9 | 9.6 | 0.00 | 0.00 | 0.00 | 48 | 1008.0 |
| 20260505002015 | 69 | 236 | 0.0 | 4.3 | 0.00 | 0.00 | 0.00 | 48 | 1007.9 |
| 20260505001540 | 69 | 0 | 0.0 | 6.1 | 0.00 | 0.00 | 0.00 | 47 | 1008.0 |
| 20260505001015 | 69 | 0 | 0.0 | 6.1 | 0.00 | 0.00 | 0.00 | 47 | 1008.0 |
| 20260505000514 | 69 | 246 | 1.7 | 6.1 | 0.00 | 0.00 | 0.00 | 46 | 1007.9 |
| 20260505000039 | 69 | 0 | 0.0 | 7.0 | 0.00 | 0.00 | 0.00 | 47 | 1008.0 |
| 20260504235515 | 69 | 209 | 0.0 | 7.0 | 0.00 | 0.00 | 0.00 | 46 | 1007.8 |
| 20260504235016 | 70 | 220 | 0.0 | 7.0 | 0.00 | 0.00 | 0.00 | 46 | 1007.9 |
| 20260504234531 | 70 | 0 | 0.0 | 12.2 | 0.00 | 0.00 | 0.00 | 46 | 1007.9 |
| 20260504234015 | 70 | 0 | 0.0 | 12.2 | 0.00 | 0.00 | 0.00 | 45 | 1007.8 |
| 20260504233515 | 70 | 207 | 1.7 | 10.4 | 0.00 | 0.00 | 0.00 | 45 | 1007.7 |
| 20260504233035 | 71 | 237 | 0.9 | 7.0 | 0.00 | 0.00 | 0.00 | 46 | 1007.6 |
| 20260504232514 | 71 | 192 | 1.7 | 7.0 | 0.00 | 0.00 | 0.00 | 46 | 1007.6 |
| 20260504232016 | 71 | 0 | 0.9 | 7.8 | 0.00 | 0.00 | 0.00 | 46 | 1007.6 |
| 20260504231540 | 71 | 0 | 1.7 | 8.7 | 0.00 | 0.00 | 0.00 | 45 | 1007.6 |
| 20260504231014 | 71 | 0 | 0.9 | 8.7 | 0.00 | 0.00 | 0.00 | 44 | 1007.6 |
| 20260504230518 | 71 | 0 | 0.0 | 13.0 | 0.00 | 0.00 | 0.00 | 44 | 1007.7 |
| 20260504230032 | 71 | 204 | 1.7 | 13.0 | 0.00 | 0.00 | 0.00 | 44 | 1007.6 |
| 20260504225515 | 72 | 212 | 2.6 | 13.0 | 0.00 | 0.00 | 0.00 | 44 | 1007.6 |
| 20260504225015 | 72 | 0 | 0.9 | 13.0 | 0.00 | 0.00 | 0.00 | 44 | 1007.5 |
| 20260504224537 | 72 | 219 | 1.7 | 13.0 | 0.00 | 0.00 | 0.00 | 43 | 1007.6 |
| 20260504224018 | 72 | 0 | 1.7 | 8.7 | 0.00 | 0.00 | 0.00 | 44 | 1007.6 |
| 20260504223519 | 72 | 196 | 1.7 | 8.7 | 0.00 | 0.00 | 0.00 | 43 | 1007.6 |
| 20260504223030 | 73 | 0 | 0.9 | 12.2 | 0.00 | 0.00 | 0.00 | 43 | 1007.7 |
| 20260504222513 | 73 | 0 | 0.0 | 12.2 | 0.00 | 0.00 | 0.00 | 44 | 1007.6 |
| 20260504222014 | 73 | 222 | 2.6 | 12.2 | 0.00 | 0.00 | 0.00 | 42 | 1007.6 |
| 20260504221533 | 73 | 212 | 1.7 | 13.9 | 0.00 | 0.00 | 0.00 | 42 | 1007.6 |
| 20260504221015 | 73 | 249 | 2.6 | 13.9 | 0.00 | 0.00 | 0.00 | 41 | 1007.6 |
| 20260504220515 | 74 | 217 | 2.6 | 9.6 | 0.00 | 0.00 | 0.00 | 42 | 1007.5 |
| 20260504220035 | 74 | 0 | 0.0 | 10.4 | 0.00 | 0.00 | 0.00 | 40 | 1007.5 |
| 20260504215515 | 74 | 0 | 2.6 | 11.3 | 0.00 | 0.00 | 0.00 | 39 | 1007.5 |
| 20260504215012 | 75 | 196 | 2.6 | 11.3 | 0.00 | 0.00 | 0.00 | 38 | 1007.5 |
| 20260504214531 | 75 | 0 | 0.9 | 9.6 | 0.00 | 0.00 | 0.00 | 39 | 1007.5 |
| 20260504214016 | 75 | 207 | 0.9 | 9.6 | 0.00 | 0.00 | 0.00 | 38 | 1007.5 |
| 20260504213514 | 75 | 0 | 0.0 | 7.8 | 0.00 | 0.00 | 0.00 | 40 | 1007.6 |
| 20260504213030 | 75 | 0 | 0.9 | 7.8 | 0.00 | 0.00 | 0.00 | 40 | 1007.5 |
| 20260504212514 | 75 | 0 | 0.0 | 4.3 | 0.00 | 0.00 | 0.00 | 38 | 1007.5 |
| 20260504212015 | 75 | 227 | 0.9 | 15.6 | 0.00 | 0.00 | 0.00 | 38 | 1007.6 |
| 20260504211531 | 75 | 0 | 0.0 | 15.6 | 0.00 | 0.00 | 0.00 | 39 | 1007.6 |
| 20260504211014 | 75 | 252 | 3.5 | 15.6 | 0.00 | 0.00 | 0.00 | 37 | 1007.5 |
| 20260504210514 | 75 | 227 | 0.9 | 10.4 | 0.00 | 0.00 | 0.00 | 37 | 1007.6 |
| 20260504210051 | 75 | 0 | 1.7 | 7.0 | 0.00 | 0.00 | 0.00 | 39 | 1007.4 |
| 20260504205515 | 75 | 192 | 0.9 | 9.6 | 0.00 | 0.00 | 0.00 | 40 | 1007.6 |
| 20260504205014 | 75 | 194 | 0.9 | 13.0 | 0.00 | 0.00 | 0.00 | 39 | 1007.6 |
| 20260504204534 | 75 | 0 | 0.9 | 13.0 | 0.00 | 0.00 | 0.00 | 38 | 1007.6 |
| 20260504204014 | 75 | 0 | 0.9 | 10.4 | 0.00 | 0.00 | 0.00 | 39 | 1007.7 |
| 20260504203515 | 75 | 185 | 1.7 | 13.9 | 0.00 | 0.00 | 0.00 | 39 | 1007.8 |
| 20260504203035 | 75 | 189 | 0.9 | 13.9 | 0.00 | 0.00 | 0.00 | 39 | 1007.9 |
| 20260504202515 | 75 | 0 | 0.0 | 11.3 | 0.00 | 0.00 | 0.00 | 40 | 1007.9 |
| 20260504202016 | 74 | 0 | 0.0 | 10.4 | 0.00 | 0.00 | 0.00 | 40 | 1008.0 |
| 20260504201531 | 74 | 217 | 0.9 | 13.0 | 0.00 | 0.00 | 0.00 | 39 | 1008.1 |
| 20260504201012 | 74 | 315 | 3.5 | 13.0 | 0.00 | 0.00 | 0.00 | 38 | 1008.2 |
| 20260504200514 | 74 | 0 | 0.9 | 10.4 | 0.00 | 0.00 | 0.00 | 40 | 1008.2 |
| 20260504200032 | 74 | 223 | 0.9 | 10.4 | 0.00 | 0.00 | 0.00 | 41 | 1008.3 |
| 20260504195512 | 74 | 212 | 1.7 | 13.0 | 0.00 | 0.00 | 0.00 | 39 | 1008.5 |
| 20260504195012 | 74 | 227 | 1.7 | 15.6 | 0.00 | 0.00 | 0.00 | 41 | 1008.5 |
| 20260504194542 | 74 | 223 | 0.9 | 15.6 | 0.00 | 0.00 | 0.00 | 39 | 1008.5 |
| 20260504194012 | 74 | 233 | 0.0 | 7.0 | 0.00 | 0.00 | 0.00 | 41 | 1008.7 |
| 20260504193512 | 74 | 211 | 0.0 | 7.0 | 0.00 | 0.00 | 0.00 | 43 | 1008.9 |
| 20260504193030 | 74 | 194 | 0.0 | 11.3 | 0.00 | 0.00 | 0.00 | 42 | 1008.9 |
| 20260504192511 | 74 | 0 | 0.9 | 11.3 | 0.00 | 0.00 | 0.00 | 41 | 1009.0 |
| 20260504192011 | 74 | 0 | 3.5 | 11.3 | 0.00 | 0.00 | 0.00 | 40 | 1009.1 |
| 20260504191541 | 74 | 270 | 0.0 | 7.8 | 0.00 | 0.00 | 0.00 | 42 | 1009.1 |
| 20260504191013 | 74 | 0 | 0.0 | 7.8 | 0.00 | 0.00 | 0.00 | 40 | 1009.1 |
| 20260504190513 | 74 | 0 | 1.7 | 8.7 | 0.00 | 0.00 | 0.00 | 42 | 1009.3 |
| 20260504190040 | 74 | 0 | 0.9 | 8.7 | 0.00 | 0.00 | 0.00 | 44 | 1009.3 |
| 20260504185516 | 73 | 0 | 0.0 | 6.1 | 0.00 | 0.00 | 0.00 | 41 | 1009.3 |
| 20260504185010 | 74 | 0 | 0.9 | 9.6 | 0.00 | 0.00 | 0.00 | 43 | 1009.5 |
| 20260504184537 | 74 | 219 | 0.9 | 9.6 | 0.00 | 0.00 | 0.00 | 42 | 1009.6 |
| 20260504184014 | 73 | 0 | 0.0 | 8.7 | 0.00 | 0.00 | 0.00 | 43 | 1009.6 |
| 20260504183513 | 73 | 205 | 0.0 | 8.7 | 0.00 | 0.00 | 0.00 | 42 | 1009.7 |
| 20260504183031 | 73 | 217 | 0.9 | 8.7 | 0.00 | 0.00 | 0.00 | 43 | 1009.7 |
| 20260504182514 | 73 | 0 | 0.0 | 7.0 | 0.00 | 0.00 | 0.00 | 45 | 1009.7 |
| 20260504182012 | 73 | 166 | 0.0 | 8.7 | 0.00 | 0.00 | 0.00 | 43 | 1009.8 |
| 20260504181530 | 72 | 0 | 0.0 | 9.6 | 0.00 | 0.00 | 0.00 | 47 | 1009.9 |
| 20260504181017 | 72 | 215 | 2.6 | 9.6 | 0.00 | 0.00 | 0.00 | 44 | 1009.9 |
| 20260504180512 | 72 | 245 | 1.7 | 9.6 | 0.00 | 0.00 | 0.00 | 42 | 1010.1 |
| 20260504180033 | 72 | 0 | 0.0 | 10.4 | 0.00 | 0.00 | 0.00 | 44 | 1010.1 |
| 20260504175510 | 72 | 0 | 0.9 | 10.4 | 0.00 | 0.00 | 0.00 | 44 | 1010.2 |
| 20260504175012 | 72 | 0 | 0.9 | 12.2 | 0.00 | 0.00 | 0.00 | 43 | 1010.2 |
| 20260504174530 | 72 | 254 | 1.7 | 12.2 | 0.00 | 0.00 | 0.00 | 44 | 1010.3 |
| 20260504174014 | 71 | 0 | 0.0 | 11.3 | 0.00 | 0.00 | 0.00 | 44 | 1010.2 |
| 20260504173513 | 70 | 0 | 2.6 | 11.3 | 0.00 | 0.00 | 0.00 | 43 | 1010.4 |
| 20260504173035 | 70 | 223 | 1.7 | 14.8 | 0.00 | 0.00 | 0.00 | 44 | 1010.4 |
| 20260504172512 | 70 | 213 | 1.7 | 14.8 | 0.00 | 0.00 | 0.00 | 44 | 1010.6 |
| 20260504172011 | 69 | 313 | 6.1 | 13.9 | 0.00 | 0.00 | 0.00 | 44 | 1010.6 |
| 20260504171532 | 70 | 0 | 4.3 | 13.9 | 0.00 | 0.00 | 0.00 | 42 | 1010.6 |